Location: Hilton Head Island
(32.2163°N, 80.7526°W)
Time: 21:45:34
(UTC-05:00)

Tiros 1 despin weight - Pass Details

Date: 16 February 2026
Orbit: 556 x 593 km, 48.2° (Epoch: 7 March)

Event Time Altitude Azimuth Distance (km) Brightness Sun altitude
Rises 13:25:46 0° 184° (S) 2,742 ? 44.1°
Reaches altitude 10° 13:29:12 10° 154° (SSE) 1,842 ? 43.9°
Maximum altitude 13:31:01 13° 129° (SE) 1,680 ? 43.8°
Drops below altitude 10° 13:32:49 10° 103° (ESE) 1,838 ? 43.7°
Sets 13:36:14 0° 74° (ENE) 2,732 ? 43.4°
